{"data":{"norad_id":57339,"epoch":"2026-09-20T04:55:42.472416Z","epoch_age_seconds":149680,"freshness":"FRESH","line1":"1 57339U 23099M   26263.20535269 -.00000222  00000+0  14619-5 0  9993","line2":"2 57339  43.0016 234.0020 0001298 268.5980  91.4723 15.27571126175828","mean_motion":15.27571126,"eccentricity":0.0001298,"inclination_deg":43.0016,"raan_deg":234.002,"arg_perigee_deg":268.598,"mean_anomaly_deg":91.4723,"bstar":1.4619e-6,"rev_number":17582,"period_min":94.267296330135,"perigee_km":482.18508271237,"apogee_km":483.96625352102,"semimajor_km":6861.2126681167,"source":"CELESTRAK","updated_at":"2026-09-21T09:00:33.598106Z"}}